Location: Bremen
(53.0793°N, 8.8017°E)
Time: 01:55:44
(UTC+02:00)

Vanguard 1 - All Passes

Search period start: 17 April 2024 00:00
Search period end: 27 April 2024 00:00
Orbit: 653 x 3825 km, 34.2° (Epoch: 15 April)

Date Brightness Start Highest point End Pass type
(mag) Time Alt. Az. Time Alt. Az. Time Alt. Az.
17 Apr - 03:57:48 10° SSE 04:03:53 12° SE 04:09:16 10° SE visible
17 Apr - 06:11:42 10° SSW 06:25:19 25° SSE 06:34:42 10° ESE daylight
17 Apr - 08:34:02 10° SW 08:46:19 29° S 08:54:03 10° SE daylight
17 Apr - 10:58:52 10° WSW 11:05:43 18° SSW 11:10:41 10° SSE daylight
18 Apr - 04:13:06 10° S 04:23:46 17° SSE 04:32:27 10° ESE visible
18 Apr - 06:30:44 10° SW 06:45:22 29° SSE 06:55:05 10° ESE daylight
18 Apr - 08:54:04 10° WSW 09:06:14 29° S 09:13:52 10° SE daylight
18 Apr - 11:19:46 10° WSW 11:25:18 15° SW 11:29:34 10° S daylight
19 Apr - 04:30:18 10° S 04:43:42 21° SSE 04:53:59 10° ESE visible
19 Apr - 06:50:08 10° SW 07:05:24 31° S 07:15:17 10° ESE daylight
19 Apr - 09:14:17 10° WSW 09:26:05 28° SSW 09:33:34 10° SE daylight
19 Apr - 11:41:20 10° WSW 11:44:47 12° SW 11:47:42 10° SSW daylight
20 Apr - 04:48:24 10° SSW 05:03:40 25° SSE 05:14:54 10° ESE visible
20 Apr - 07:09:48 10° SW 07:25:25 33° S 07:35:20 10° ESE daylight
20 Apr - 09:34:38 10° WSW 09:45:51 26° SSW 09:53:06 10° SSE daylight
21 Apr - 02:52:10 10° SSE 03:01:53 15° SE 03:10:26 10° ESE visible
21 Apr - 05:07:04 10° SSW 05:23:40 29° SSE 05:35:28 10° ESE visible
21 Apr - 07:29:42 10° WSW 07:45:24 34° S 07:55:16 10° SE daylight
21 Apr - 09:55:10 10° WSW 10:05:31 24° SSW 10:12:26 10° SSE daylight
22 Apr - 03:08:22 10° S 03:21:39 19° SE 03:32:47 10° ESE visible
22 Apr - 05:26:10 10° SW 05:43:41 33° SSE 05:55:47 10° ESE visible
22 Apr - 07:49:46 10° WSW 08:05:21 35° S 08:15:05 10° SE daylight
22 Apr - 10:15:54 10° WSW 10:25:05 20° SW 10:31:30 10° S daylight
23 Apr - 03:25:51 10° S 03:41:28 24° SSE 03:54:07 10° ESE visible
23 Apr - 05:45:35 10° SW 06:03:42 36° S 06:15:58 10° ESE daylight
23 Apr - 08:09:59 10° WSW 08:25:13 34° SSW 08:34:46 10° SE daylight
23 Apr - 10:37:00 10° WSW 10:44:32 17° SW 10:50:09 10° S daylight
24 Apr - 01:34:03 10° SE 01:39:50 11° SE 01:45:24 10° ESE visible
24 Apr - 03:44:04 10° SSW 04:01:20 28° SSE 04:14:57 10° ESE visible
24 Apr - 06:05:16 10° SW 06:23:44 38° S 06:36:00 10° ESE daylight
24 Apr - 08:30:20 10° WSW 08:45:00 32° SSW 08:54:19 10° SE daylight
24 Apr - 10:58:48 10° WSW 11:03:51 13° SW 11:08:00 10° SSW daylight
25 Apr - 01:47:56 10° SSE 01:59:22 16° SE 02:09:54 10° ESE visible
25 Apr - 04:02:48 10° SSW 04:21:15 32° SSE 04:35:29 10° ESE visible
25 Apr - 06:25:10 10° WSW 06:43:44 39° S 06:55:56 10° ESE daylight
25 Apr - 08:50:50 10° WSW 09:04:41 29° SSW 09:13:41 10° SSE daylight
26 Apr - 02:04:30 10° S 02:18:58 21° SE 02:32:02 10° E visible
26 Apr - 04:21:56 10° SW 04:41:13 36° SSE 04:55:48 10° ESE visible
26 Apr - 06:45:13 10° WSW 07:03:41 39° S 07:15:46 10° SE daylight
26 Apr - 09:11:31 10° W 09:24:15 25° SW 09:32:50 10° SSE daylight
